Weather History for Canadian, TX

Change the Weather History Date:

Friday, February 22, 2013

  Actual Average (KPPA) Record (KPPA)
Temperature  
Mean Temperature 22 °F -  
Max Temperature 32 °F 51 °F 77 °F (1977)
Min Temperature 12 °F 27 °F 5 °F (1978)
Degree Days  
Heating Degree Days 43    
Moisture  
Dew Point 16 °F    
Average Humidity 78    
Maximum Humidity 93    
Minimum Humidity 60    
Precipitation  
Precipitation 0.00 in - - ()
Sea Level Pressure  
Sea Level Pressure 30.04 in    
Wind  
Wind Speed 2 mph (WNW)    
Max Wind Speed 7 mph    
Max Gust Speed -    
Visibility 10 miles    
Events      
Averages and records for this station are not official NWS values.
T = Trace of Precipitation, MM = Missing Value Source: NWS Daily Summary

Daily Weather History Graph

Daily Weather History Graph

Search for Another Location

Airport:

Trip Planner

Search our weather history database for the weather conditions in past years. The results will help you decide how hot, cold, wet, or windy it might be!

Date:

Astronomy

Feb. 22, 2013 Rise Set
Actual Time 7:20 AM CST 6:30 PM CST
Civil Twilight 6:54 AM CST 6:56 PM CST
Nautical Twilight 6:24 AM CST 7:26 PM CST
Astronomical Twilight 5:54 AM CST 7:55 PM CST
Moon 3:47 PM CST (2/22) 5:02 AM CST (2/22)
Length of Visible Light 12h 01m
Length of Day
11h 10m
Waxing Gibbous, 90% of the Moon is Illuminated
Feb 22
Waxing Gibbous
Feb 25
Full
Mar 4
Last Quarter
Mar 11
New
Mar 19
First Quarter

Hourly Weather History & Observations

Time (CST) Temp. Windchill Dew Point Humidity Pressure Visibility Wind Dir Wind Speed Gust Speed Precip Events Conditions
12:15 AM 17.6 °F - 12.2 °F 79% 29.97 in 10.0 mi Calm Calm - N/A   Clear
12:35 AM 17.6 °F 8.2 °F 12.2 °F 79% 29.98 in 10.0 mi WNW 6.9 mph - N/A   Clear
12:55 AM 17.6 °F 8.2 °F 12.2 °F 79% 29.99 in 10.0 mi West 6.9 mph - N/A   Clear
1:15 AM 19.4 °F 11.5 °F 12.2 °F 74% 29.99 in 10.0 mi NW 5.8 mph - N/A   Clear
1:35 AM 17.6 °F 12.3 °F 12.2 °F 79% 29.99 in 10.0 mi NW 3.5 mph - N/A   Clear
1:55 AM 17.6 °F 12.3 °F 12.2 °F 79% 29.99 in 10.0 mi WNW 3.5 mph - N/A   Clear
2:15 AM 15.8 °F 10.2 °F 10.4 °F 79% 30.01 in 10.0 mi WSW 3.5 mph - N/A   Clear
2:35 AM 14.0 °F 5.1 °F 10.4 °F 86% 30.02 in 10.0 mi South 5.8 mph - N/A   Clear
2:55 AM 14.0 °F 8.2 °F 10.4 °F 86% 30.00 in 10.0 mi WNW 3.5 mph - N/A   Clear
3:15 AM 15.8 °F - 12.2 °F 86% 30.01 in 10.0 mi Calm Calm - N/A   Clear
3:35 AM 14.0 °F 6.5 °F 10.4 °F 86% 30.00 in 10.0 mi North 4.6 mph - N/A   Clear
3:55 AM 14.0 °F - 10.4 °F 86% 30.00 in 10.0 mi Calm Calm - N/A   Clear
4:15 AM 15.8 °F - 10.4 °F 79% 30.00 in 10.0 mi Calm Calm - N/A   Clear
4:35 AM 14.0 °F 8.2 °F 10.4 °F 86% 30.00 in 10.0 mi North 3.5 mph - N/A   Clear
4:55 AM 12.2 °F 2.9 °F 8.6 °F 85% 30.01 in 10.0 mi NW 5.8 mph - N/A   Clear
5:15 AM 12.2 °F - 8.6 °F 85% 30.01 in 10.0 mi Calm Calm - N/A   Clear
5:35 AM 14.0 °F - 10.4 °F 86% 30.02 in 10.0 mi Calm Calm - N/A   Clear
6:15 AM 12.2 °F - 8.6 °F 85% 30.01 in 10.0 mi Calm Calm - N/A   Clear
6:35 AM 12.2 °F - 8.6 °F 85% 30.01 in 10.0 mi Calm Calm - N/A   Clear
6:55 AM 12.2 °F - 8.6 °F 85% 30.01 in 10.0 mi Calm Calm - N/A   Clear
7:15 AM 12.2 °F - 8.6 °F 85% 30.01 in 10.0 mi Calm Calm - N/A   Clear
7:35 AM 14.0 °F 8.2 °F 10.4 °F 86% 30.02 in 10.0 mi South 3.5 mph - N/A   Clear
7:55 AM 17.6 °F 12.3 °F 12.2 °F 79% 30.05 in 10.0 mi WSW 3.5 mph - N/A   Clear
8:15 AM 17.6 °F 10.7 °F 10.4 °F 73% 30.07 in 10.0 mi SSW 4.6 mph - N/A   Clear
8:35 AM 17.6 °F - 12.2 °F 79% 30.08 in 10.0 mi Calm Calm - N/A   Clear
9:55 AM 19.4 °F 14.3 °F 12.2 °F 74% 30.09 in 10.0 mi North 3.5 mph - N/A   Clear
10:15 AM 19.4 °F 14.3 °F 14.0 °F 80% 30.09 in 10.0 mi North 3.5 mph - N/A   Clear
10:35 AM 21.2 °F 13.6 °F 14.0 °F 74% 30.09 in 10.0 mi NNW 5.8 mph - N/A   Clear
10:55 AM 23.0 °F 18.4 °F 17.6 °F 80% 30.10 in 10.0 mi NNW 3.5 mph - N/A   Clear
11:55 AM 26.6 °F - 17.6 °F 69% 30.09 in 10.0 mi Calm Calm - N/A   Clear
12:15 PM 26.6 °F 22.6 °F 17.6 °F 69% 30.09 in 10.0 mi NNW 3.5 mph - N/A   Clear
12:35 PM 28.4 °F - 19.4 °F 69% 30.09 in 10.0 mi Calm Calm - N/A   Clear
12:55 PM 28.4 °F - 19.4 °F 69% 30.09 in 10.0 mi Calm Calm - N/A   Scattered Clouds
1:15 PM 28.4 °F - 19.4 °F 69% 30.07 in 10.0 mi Calm Calm - N/A   Scattered Clouds
1:35 PM 28.4 °F - 19.4 °F 69% 30.06 in 10.0 mi Calm Calm - N/A   Clear
1:55 PM 30.2 °F - 19.4 °F 64% 30.05 in 10.0 mi Calm Calm - N/A   Clear
2:15 PM 30.2 °F 26.7 °F 21.2 °F 69% 30.05 in 10.0 mi North 3.5 mph - N/A   Clear
2:35 PM 30.2 °F - 19.4 °F 64% 30.05 in 10.0 mi Calm Calm - N/A   Clear
2:55 PM 30.2 °F - 19.4 °F 64% 30.05 in 10.0 mi Calm Calm - N/A   Clear
3:15 PM 30.2 °F - 21.2 °F 69% 30.04 in 10.0 mi Calm Calm - N/A   Clear
3:35 PM 32.0 °F - 21.2 °F 64% 30.04 in 10.0 mi Calm Calm - N/A   Scattered Clouds
3:55 PM 32.0 °F - 21.2 °F 64% 30.03 in 10.0 mi Calm Calm - N/A   Scattered Clouds
4:15 PM 32.0 °F - 21.2 °F 64% 30.03 in 10.0 mi Calm Calm - N/A   Scattered Clouds
4:55 PM 32.0 °F - 21.2 °F 64% 30.03 in 10.0 mi Calm Calm - N/A   Clear
5:15 PM 32.0 °F - 19.4 °F 60% 30.03 in 10.0 mi Calm Calm - N/A   Clear
5:35 PM 32.0 °F - 21.2 °F 64% 30.03 in 10.0 mi Calm Calm - N/A   Clear
5:55 PM 32.0 °F - 21.2 °F 64% 30.03 in 10.0 mi Calm Calm - N/A   Clear
6:15 PM 30.2 °F - 21.2 °F 69% 30.04 in 10.0 mi Calm Calm - N/A   Clear
6:35 PM 30.2 °F - 21.2 °F 69% 30.04 in 10.0 mi Calm Calm - N/A   Clear
6:55 PM 30.2 °F - 21.2 °F 69% 30.05 in 10.0 mi Calm Calm - N/A   Clear
7:15 PM 28.4 °F - 21.2 °F 74% 30.04 in 10.0 mi Calm Calm - N/A   Clear
7:35 PM 26.6 °F - 21.2 °F 80% 30.05 in 10.0 mi Calm Calm - N/A   Clear
7:55 PM 23.0 °F - 19.4 °F 86% 30.05 in 10.0 mi Calm Calm - N/A   Clear
8:15 PM 21.2 °F - 19.4 °F 93% 30.05 in 10.0 mi Calm Calm - N/A   Clear
8:35 PM 21.2 °F - 17.6 °F 86% 30.05 in 10.0 mi Calm Calm - N/A   Clear
8:55 PM 21.2 °F - 19.4 °F 93% 30.05 in 10.0 mi Calm Calm - N/A   Clear
9:15 PM 19.4 °F - 17.6 °F 93% 30.05 in 10.0 mi Calm Calm - N/A   Clear
9:35 PM 19.4 °F - 17.6 °F 93% 30.05 in 10.0 mi Calm Calm - N/A   Clear
9:55 PM 19.4 °F 14.3 °F 17.6 °F 93% 30.06 in 7.0 mi WSW 3.5 mph - N/A   Clear
10:15 PM 19.4 °F - 17.6 °F 93% 30.05 in 7.0 mi Calm Calm - N/A   Clear
10:35 PM 19.4 °F 14.3 °F 17.6 °F 93% 30.06 in 7.0 mi SW 3.5 mph - N/A   Clear
10:55 PM 21.2 °F - 19.4 °F 93% 30.05 in 10.0 mi Calm Calm - N/A   Clear
11:15 PM 21.2 °F - 19.4 °F 93% 30.05 in 10.0 mi Calm Calm - N/A   Clear
11:35 PM 21.2 °F - 19.4 °F 93% 30.05 in 10.0 mi Calm Calm - N/A   Clear
11:55 PM 21.2 °F - 17.6 °F 86% 30.05 in 7.0 mi Calm Calm - N/A   Clear